TVS453P LKPR-EPRZ

Flight info

Callsign TVS453P
Flight time 0h 56m
Altitude 35000
Route VOZ DCT LIKSA DCT NETIR Z121 SKAVI L984 LUXAR
Aircraft B738/M-SDE2E3FGHIRWXY/LB1

Departure

Time 2026-04-24 21:09
Airport Václav Havel Airport Prague (LKPR)

Arrival

Time 2026-04-24 22:06
Airport Rzeszów-Jasionka Airport (EPRZ)
Time Latitude Longitude Altitude Speed Heading
2026-04-24 20:47 50.10857 14.26450 1176 ft 0 kts 35°
2026-04-24 20:55 50.10845 14.26436 1173 ft 4 kts 34°
2026-04-24 20:56 50.10822 14.26413 1176 ft 4 kts 32°
2026-04-24 20:56 50.10799 14.26392 1176 ft 4 kts 26°
2026-04-24 20:56 50.10775 14.26379 1172 ft 4 kts
2026-04-24 20:56 50.10757 14.26386 1176 ft 4 kts 304°
2026-04-24 20:57 50.10766 14.26366 1176 ft 4 kts 304°
2026-04-24 20:57 50.10779 14.26337 1176 ft 1 kts 305°
2026-04-24 20:57 50.10779 14.26336 1176 ft 5 kts 305°
2026-04-24 21:01 50.10780 14.26336 1176 ft 0 kts 305°
2026-04-24 21:01 50.10785 14.26324 1172 ft 3 kts 305°
2026-04-24 21:01 50.10798 14.26292 1176 ft 4 kts 296°
2026-04-24 21:02 50.10792 14.26247 1176 ft 5 kts 233°
2026-04-24 21:02 50.10758 14.26207 1177 ft 7 kts 213°
2026-04-24 21:02 50.10713 14.26158 1173 ft 9 kts 214°
2026-04-24 21:02 50.10659 14.26101 1173 ft 10 kts 215°
2026-04-24 21:03 50.10596 14.26039 1173 ft 11 kts 213°
2026-04-24 21:03 50.10533 14.25970 1181 ft 11 kts 218°
2026-04-24 21:03 50.10502 14.25867 1184 ft 11 kts 259°
2026-04-24 21:03 50.10488 14.25752 1184 ft 11 kts 259°
2026-04-24 21:04 50.10472 14.25625 1184 ft 13 kts 259°
2026-04-24 21:04 50.10452 14.25468 1179 ft 17 kts 258°
2026-04-24 21:04 50.10427 14.25263 1174 ft 20 kts 262°
2026-04-24 21:04 50.10400 14.25046 1173 ft 21 kts 259°
2026-04-24 21:05 50.10372 14.24828 1171 ft 20 kts 259°
2026-04-24 21:05 50.10345 14.24618 1172 ft 20 kts 259°
2026-04-24 21:05 50.10321 14.24413 1177 ft 19 kts 259°
2026-04-24 21:05 50.10296 14.24216 1181 ft 18 kts 259°
2026-04-24 21:06 50.10272 14.24025 1185 ft 18 kts 259°
2026-04-24 21:06 50.10250 14.23841 1189 ft 17 kts 259°
2026-04-24 21:06 50.10228 14.23663 1192 ft 16 kts 259°
2026-04-24 21:06 50.10204 14.23486 1193 ft 16 kts 257°
2026-04-24 21:07 50.10166 14.23321 1194 ft 16 kts 244°
2026-04-24 21:07 50.10119 14.23166 1198 ft 16 kts 245°
2026-04-24 21:07 50.10074 14.23017 1202 ft 15 kts 245°
2026-04-24 21:07 50.10035 14.22872 1205 ft 14 kts 260°
2026-04-24 21:08 50.10070 14.22732 1204 ft 15 kts 322°
2026-04-24 21:08 50.10168 14.22666 1204 ft 15 kts 347°
2026-04-24 21:08 50.10232 14.22788 1201 ft 17 kts 65°
2026-04-24 21:08 50.10329 14.23110 1192 ft 64 kts 65°
2026-04-24 21:09 50.10620 14.24083 1175 ft 132 kts 65°
2026-04-24 21:09 50.11094 14.25635 1269 ft 179 kts 63°
2026-04-24 21:09 50.11662 14.27346 2087 ft 171 kts 62°
2026-04-24 21:09 50.12205 14.28972 2940 ft 173 kts 62°
2026-04-24 21:10 50.12765 14.30752 3428 ft 197 kts 64°
2026-04-24 21:10 50.13363 14.32835 3626 ft 225 kts 62°
2026-04-24 21:10 50.14030 14.35168 3936 ft 247 kts 62°
2026-04-24 21:10 50.14767 14.37729 4369 ft 266 kts 62°
2026-04-24 21:11 50.15527 14.40357 4921 ft 267 kts 62°
2026-04-24 21:11 50.16310 14.43041 4989 ft 274 kts 62°
2026-04-24 21:11 50.17097 14.45715 4996 ft 274 kts 62°
2026-04-24 21:11 50.17900 14.48436 5000 ft 271 kts 62°
2026-04-24 21:12 50.18681 14.51088 5163 ft 276 kts 64°
2026-04-24 21:12 50.19000 14.53066 5640 ft 283 kts 86°
2026-04-24 21:12 50.18244 14.56945 6832 ft 291 kts 125°
2026-04-24 21:12 50.16769 14.59106 7656 ft 295 kts 149°
2026-04-24 21:13 50.14877 14.60345 8487 ft 297 kts 164°
2026-04-24 21:13 50.12879 14.61265 9265 ft 302 kts 166°
2026-04-24 21:13 50.10836 14.62135 10037 ft 307 kts 167°
2026-04-24 21:13 50.08733 14.63020 10560 ft 322 kts 167°
2026-04-24 21:14 50.07257 14.63645 10664 ft 340 kts 166°
2026-04-24 21:14 50.04898 14.64661 10858 ft 364 kts 166°
2026-04-24 21:14 50.02393 14.65756 11134 ft 383 kts 166°
2026-04-24 21:14 49.99795 14.66904 11675 ft 392 kts 165°
2026-04-24 21:15 49.97153 14.68080 12377 ft 396 kts 165°
2026-04-24 21:15 49.94488 14.69267 13083 ft 400 kts 165°
2026-04-24 21:15 49.91799 14.70466 13775 ft 403 kts 165°
2026-04-24 21:15 49.89091 14.71674 14467 ft 406 kts 166°
2026-04-24 21:16 49.86369 14.72878 15162 ft 409 kts 166°
2026-04-24 21:16 49.83617 14.74099 15813 ft 413 kts 166°
2026-04-24 21:16 49.80843 14.75328 16446 ft 417 kts 166°
2026-04-24 21:16 49.78045 14.76568 17043 ft 421 kts 166°
2026-04-24 21:17 49.75218 14.77818 17635 ft 424 kts 166°
2026-04-24 21:17 49.72377 14.79071 18241 ft 426 kts 166°
2026-04-24 21:17 49.69512 14.80335 18838 ft 429 kts 166°
2026-04-24 21:17 49.66624 14.81607 19364 ft 433 kts 166°
2026-04-24 21:18 49.63713 14.82888 19903 ft 437 kts 166°
2026-04-24 21:18 49.60776 14.84179 20407 ft 441 kts 166°
2026-04-24 21:18 49.57818 14.85478 20955 ft 443 kts 165°
2026-04-24 21:18 49.54967 14.87339 21429 ft 450 kts 149°
2026-04-24 21:19 49.52540 14.90400 21887 ft 454 kts 132°
2026-04-24 21:19 49.50752 14.94398 22350 ft 455 kts 115°
2026-04-24 21:19 49.49353 14.98775 22842 ft 457 kts 114°
2026-04-24 21:19 49.47968 15.03189 23257 ft 460 kts 114°
2026-04-24 21:20 49.45139 15.12094 24098 ft 466 kts 115°
2026-04-24 21:20 49.43689 15.16568 24484 ft 470 kts 115°
2026-04-24 21:20 49.42216 15.21068 24849 ft 473 kts 115°
2026-04-24 21:21 49.40727 15.25587 25225 ft 476 kts 115°
2026-04-24 21:21 49.39227 15.30125 25617 ft 478 kts 115°
2026-04-24 21:21 49.37718 15.34680 25974 ft 481 kts 116°
2026-04-24 21:21 49.36195 15.39270 26302 ft 484 kts 116°
2026-04-24 21:22 49.34666 15.43871 26648 ft 486 kts 116°
2026-04-24 21:22 49.33147 15.48438 26963 ft 488 kts 116°
2026-04-24 21:22 49.31599 15.53086 27279 ft 491 kts 116°
2026-04-24 21:22 49.30041 15.57756 27609 ft 493 kts 116°
2026-04-24 21:23 49.28475 15.62436 27913 ft 495 kts 116°
2026-04-24 21:23 49.26899 15.67140 28175 ft 498 kts 116°
2026-04-24 21:23 49.25313 15.71862 28468 ft 500 kts 116°
2026-04-24 21:23 49.23719 15.76602 28771 ft 501 kts 116°
2026-04-24 21:24 49.22123 15.81340 29127 ft 501 kts 116°
2026-04-24 21:24 49.20531 15.86061 29543 ft 499 kts 116°
2026-04-24 21:24 49.18938 15.90772 29960 ft 498 kts 116°
2026-04-24 21:24 49.17405 15.95508 30299 ft 497 kts 110°
2026-04-24 21:25 49.16520 16.00567 30588 ft 492 kts 94°
2026-04-24 21:25 49.16427 16.05751 30932 ft 485 kts 81°
2026-04-24 21:25 49.17081 16.10743 31275 ft 476 kts 67°
2026-04-24 21:25 49.18141 16.15521 31622 ft 474 kts 66°
2026-04-24 21:26 49.19212 16.20283 31908 ft 475 kts 66°
2026-04-24 21:26 49.20279 16.25068 32185 ft 476 kts 66°
2026-04-24 21:26 49.21329 16.29861 32521 ft 475 kts 66°
2026-04-24 21:26 49.22365 16.34663 32867 ft 474 kts 67°
2026-04-24 21:27 49.23384 16.39451 33188 ft 473 kts 67°
2026-04-24 21:27 49.24398 16.44248 33447 ft 474 kts 67°
2026-04-24 21:27 49.25408 16.49052 33710 ft 474 kts 67°
2026-04-24 21:27 49.26414 16.53851 34027 ft 472 kts 67°
2026-04-24 21:28 49.27411 16.58625 34322 ft 471 kts 67°
2026-04-24 21:28 49.28409 16.63404 34577 ft 471 kts 67°
2026-04-24 21:28 49.29407 16.68193 34844 ft 471 kts 67°
2026-04-24 21:28 49.30385 16.72898 35060 ft 469 kts 67°
2026-04-24 21:29 49.31374 16.77669 35036 ft 469 kts 67°
2026-04-24 21:29 49.33342 16.87186 35047 ft 468 kts 67°
2026-04-24 21:30 49.35303 16.96714 35058 ft 469 kts 67°
2026-04-24 21:30 49.37262 17.06277 35051 ft 470 kts 67°
2026-04-24 21:31 49.39215 17.15864 35046 ft 471 kts 67°
2026-04-24 21:31 49.41162 17.25464 35047 ft 471 kts 67°
2026-04-24 21:32 49.43100 17.35070 35044 ft 471 kts 67°
2026-04-24 21:32 49.45029 17.44682 35046 ft 470 kts 67°
2026-04-24 21:33 49.46947 17.54280 35046 ft 470 kts 67°
2026-04-24 21:33 49.48856 17.63881 35045 ft 469 kts 67°
2026-04-24 21:34 49.50756 17.73481 35052 ft 469 kts 67°
2026-04-24 21:34 49.52651 17.83107 35062 ft 469 kts 67°
2026-04-24 21:35 49.54535 17.92727 35065 ft 469 kts 67°
2026-04-24 21:35 49.56413 18.02359 35076 ft 470 kts 67°
2026-04-24 21:36 49.58275 18.11950 35071 ft 470 kts 67°
2026-04-24 21:36 49.60139 18.21613 35068 ft 471 kts 67°
2026-04-24 21:37 49.61997 18.31296 35081 ft 471 kts 68°
2026-04-24 21:37 49.63846 18.40980 35084 ft 471 kts 67°
2026-04-24 21:38 49.65689 18.50683 35074 ft 471 kts 68°
2026-04-24 21:38 49.67525 18.60390 35068 ft 472 kts 68°
2026-04-24 21:39 49.69355 18.70114 35059 ft 471 kts 68°
2026-04-24 21:39 49.71298 18.79749 35051 ft 469 kts 65°
2026-04-24 21:40 49.73353 18.89312 35044 ft 468 kts 65°
2026-04-24 21:40 49.75380 18.98863 35042 ft 467 kts 66°
2026-04-24 21:41 49.77371 19.08408 35055 ft 465 kts 66°
2026-04-24 21:41 49.79346 19.17940 35042 ft 465 kts 66°
2026-04-24 21:42 49.81309 19.27453 35044 ft 464 kts 66°
2026-04-24 21:42 49.83267 19.36976 35034 ft 464 kts 65°
2026-04-24 21:43 49.85217 19.46509 35026 ft 464 kts 66°
2026-04-24 21:43 49.87159 19.56041 35027 ft 464 kts 66°
2026-04-24 21:44 49.89099 19.65605 34732 ft 470 kts 66°
2026-04-24 21:44 49.90079 19.70455 34044 ft 471 kts 66°
2026-04-24 21:44 49.91055 19.75302 33402 ft 471 kts 66°
2026-04-24 21:44 49.92031 19.80155 32702 ft 472 kts 66°
2026-04-24 21:45 49.93006 19.85018 32005 ft 473 kts 66°
2026-04-24 21:45 49.93823 19.89999 31215 ft 481 kts 74°
2026-04-24 21:45 49.94157 19.95213 30411 ft 492 kts 84°
2026-04-24 21:45 49.94091 20.00554 29613 ft 495 kts 86°
2026-04-24 21:46 49.94013 20.05900 28838 ft 496 kts 86°
2026-04-24 21:46 49.93964 20.11229 28258 ft 491 kts 86°
2026-04-24 21:46 49.93882 20.16499 27655 ft 486 kts 86°
2026-04-24 21:46 49.93829 20.21721 27060 ft 481 kts 86°
2026-04-24 21:47 49.93802 20.26893 26471 ft 477 kts 86°
2026-04-24 21:47 49.93790 20.30292 26081 ft 475 kts 86°
2026-04-24 21:47 49.93764 20.37043 25309 ft 469 kts 86°
2026-04-24 21:47 49.93738 20.42079 24730 ft 466 kts 87°
2026-04-24 21:48 49.93707 20.47091 24145 ft 462 kts 87°
2026-04-24 21:48 49.93672 20.52066 23568 ft 458 kts 87°
2026-04-24 21:48 49.93633 20.56992 22993 ft 455 kts 87°
2026-04-24 21:48 49.93594 20.61877 22421 ft 451 kts 87°
2026-04-24 21:49 49.93553 20.66734 21851 ft 448 kts 88°
2026-04-24 21:49 49.93509 20.71545 21286 ft 444 kts 88°
2026-04-24 21:49 49.93463 20.76320 20731 ft 440 kts 88°
2026-04-24 21:49 49.93416 20.81050 20188 ft 437 kts 88°
2026-04-24 21:50 49.93367 20.85741 19639 ft 433 kts 88°
2026-04-24 21:50 49.93317 20.90398 19084 ft 430 kts 88°
2026-04-24 21:50 49.93267 20.95011 18528 ft 427 kts 88°
2026-04-24 21:50 49.93216 20.99600 17980 ft 423 kts 88°
2026-04-24 21:51 49.93164 21.04149 17432 ft 420 kts 89°
2026-04-24 21:51 49.93111 21.08661 16892 ft 416 kts 89°
2026-04-24 21:51 49.93055 21.13134 16353 ft 413 kts 89°
2026-04-24 21:51 49.93012 21.17562 15814 ft 409 kts 86°
2026-04-24 21:52 49.93320 21.21910 15308 ft 403 kts 77°
2026-04-24 21:52 49.93841 21.26162 14792 ft 399 kts 76°
2026-04-24 21:52 49.94373 21.30365 14278 ft 395 kts 77°
2026-04-24 21:52 49.94871 21.34543 13751 ft 392 kts 78°
2026-04-24 21:53 49.95328 21.38635 13247 ft 389 kts 79°
2026-04-24 21:53 49.95775 21.42757 12725 ft 385 kts 79°
2026-04-24 21:53 49.96214 21.46842 12224 ft 382 kts 79°
2026-04-24 21:53 49.96650 21.50895 11721 ft 378 kts 79°
2026-04-24 21:54 49.97080 21.54901 11224 ft 375 kts 79°
2026-04-24 21:54 49.97504 21.58865 10912 ft 366 kts 79°
2026-04-24 21:54 49.97914 21.62710 10753 ft 355 kts 79°
2026-04-24 21:54 49.98313 21.66433 10593 ft 344 kts 79°
2026-04-24 21:55 49.98696 21.70046 10440 ft 333 kts 79°
2026-04-24 21:55 49.99068 21.73552 10292 ft 324 kts 79°
2026-04-24 21:55 49.99427 21.76961 10154 ft 316 kts 78°
2026-04-24 21:55 49.99774 21.80281 10021 ft 307 kts 78°
2026-04-24 21:56 50.00111 21.83499 9950 ft 294 kts 78°
2026-04-24 21:56 50.00439 21.86625 9540 ft 292 kts 78°
2026-04-24 21:56 50.00761 21.89703 9239 ft 285 kts 78°
2026-04-24 21:56 50.01078 21.92728 8950 ft 281 kts 78°
2026-04-24 21:57 50.01386 21.95692 8661 ft 275 kts 77°
2026-04-24 21:57 50.01688 21.98599 8387 ft 269 kts 77°
2026-04-24 21:57 50.01982 22.01447 8125 ft 266 kts 77°
2026-04-24 21:57 50.02233 22.04312 7864 ft 270 kts 84°
2026-04-24 21:58 50.02271 22.07291 7605 ft 281 kts 88°
2026-04-24 21:58 50.02245 22.10357 7310 ft 286 kts 88°
2026-04-24 21:58 50.02217 22.13468 6998 ft 289 kts 88°
2026-04-24 21:58 50.02198 22.16574 6680 ft 285 kts 88°
2026-04-24 21:59 50.02190 22.19633 6367 ft 280 kts 88°
2026-04-24 21:59 50.02188 22.22655 5984 ft 278 kts 87°
2026-04-24 21:59 50.02187 22.25640 5682 ft 274 kts 87°
2026-04-24 21:59 50.02187 22.28575 5387 ft 270 kts 87°
2026-04-24 22:00 50.02440 22.31400 5075 ft 260 kts 62°
2026-04-24 22:00 50.03544 22.33454 4836 ft 244 kts 28°
2026-04-24 22:00 50.05021 22.34681 4610 ft 240 kts 18°
2026-04-24 22:00 50.06597 22.35530 4355 ft 239 kts 11°
2026-04-24 22:01 50.08218 22.35700 4072 ft 232 kts 343°
2026-04-24 22:01 50.09552 22.34533 3837 ft 220 kts 312°
2026-04-24 22:01 50.10331 22.32548 3615 ft 213 kts 288°
2026-04-24 22:01 50.10563 22.30320 3436 ft 204 kts 275°
2026-04-24 22:02 50.10633 22.28185 3366 ft 190 kts 274°
2026-04-24 22:02 50.10668 22.26164 3364 ft 184 kts 274°
2026-04-24 22:02 50.10716 22.24130 3132 ft 192 kts 274°
2026-04-24 22:02 50.10749 22.22063 2879 ft 190 kts 273°
2026-04-24 22:03 50.10772 22.20018 2635 ft 187 kts 272°
2026-04-24 22:03 50.10796 22.18037 2386 ft 179 kts 272°
2026-04-24 22:03 50.10817 22.16163 2154 ft 166 kts 271°
2026-04-24 22:03 50.10837 22.14420 1922 ft 156 kts 271°
2026-04-24 22:04 50.10858 22.12746 1735 ft 154 kts 270°
2026-04-24 22:04 50.10876 22.11092 1508 ft 152 kts 270°
2026-04-24 22:04 50.10890 22.09454 1299 ft 153 kts 270°
2026-04-24 22:04 50.10900 22.08329 1205 ft 153 kts 271°
2026-04-24 22:05 50.10932 22.06717 1001 ft 149 kts 271°
2026-04-24 22:05 50.10948 22.05129 783 ft 145 kts 270°
2026-04-24 22:05 50.10970 22.03616 688 ft 132 kts 272°
2026-04-24 22:05 50.10992 22.02404 691 ft 90 kts 271°
2026-04-24 22:06 50.10999 22.01724 695 ft 39 kts 270°
2026-04-24 22:06 50.11001 22.01422 702 ft 25 kts 275°
2026-04-24 22:06 50.11046 22.01169 701 ft 23 kts 295°
2026-04-24 22:06 50.11102 22.01018 698 ft 11 kts 301°
2026-04-24 22:07 50.11108 22.01003 702 ft 0 kts 301°
2026-04-24 22:07 50.11112 22.00992 694 ft 4 kts 301°
2026-04-24 22:08 50.11130 22.00946 694 ft 6 kts 301°
2026-04-24 22:08 50.11158 22.00902 697 ft 5 kts 348°
2026-04-24 22:08 50.11167 22.00913 698 ft 3 kts 46°
2026-04-24 22:08 50.11173 22.00980 695 ft 10 kts 92°
2026-04-24 22:09 50.11170 22.01136 695 ft 18 kts 91°
2026-04-24 22:09 50.11169 22.01343 702 ft 19 kts 91°
2026-04-24 22:09 50.11165 22.01555 692 ft 20 kts 91°
2026-04-24 22:09 50.11162 22.01767 697 ft 19 kts 91°
2026-04-24 22:10 50.11160 22.01980 693 ft 20 kts 91°
2026-04-24 22:10 50.11157 22.02209 690 ft 19 kts 91°
2026-04-24 22:10 50.11220 22.02301 687 ft 14 kts
2026-04-24 22:10 50.11313 22.02326 687 ft 14 kts 32°
2026-04-24 22:11 50.11324 22.02432 690 ft 10 kts 93°
2026-04-24 22:11 50.11325 22.02534 690 ft 9 kts 91°
2026-04-24 22:11 50.11352 22.02617 690 ft 9 kts 24°
2026-04-24 22:11 50.11408 22.02627 690 ft 3 kts
2026-04-24 22:12 50.11412 22.02627 690 ft 0 kts